RYR41KJ EICK-LIME

Flight info

Callsign RYR41KJ
Flight time N/A
Altitude 37000
Route ELTIG1S ELTIG DCT NORLA DCT PEWBI DCT OXLOW M140 SAM L620 MID UL612 VEULE DCT TEPRI UN491 POGZI DCT GELTA DCT LUVAL DCT SHARA DCT DEVDI DCT RIPUS N850 SOSON DCT ODINA
Aircraft B38M/M-SDE1FGHILORVWXY/HB1

Departure

Time 2026-05-06 09:42
Airport Cork International Airport (EICK)

Arrival

Time N/A
Airport Il Caravaggio International Airport (LIME)
Time Latitude Longitude Altitude Speed Heading
2026-05-06 09:10 51.84935 -8.49122 507 ft 0 kts 70°
2026-05-06 09:32 51.84927 -8.49153 507 ft 4 kts 66°
2026-05-06 09:33 51.84915 -8.49192 507 ft 4 kts 59°
2026-05-06 09:33 51.84899 -8.49226 507 ft 4 kts 42°
2026-05-06 09:33 51.84886 -8.49242 507 ft 4 kts 15°
2026-05-06 09:33 51.84873 -8.49242 507 ft 1 kts 340°
2026-05-06 09:39 51.84877 -8.49245 507 ft 2 kts 340°
2026-05-06 09:40 51.84918 -8.49267 507 ft 9 kts 344°
2026-05-06 09:40 51.84986 -8.49297 507 ft 11 kts 341°
2026-05-06 09:40 51.85132 -8.49395 507 ft 12 kts 310°
2026-05-06 09:41 51.85112 -8.49500 507 ft 11 kts 204°
2026-05-06 09:41 51.85041 -8.49552 507 ft 11 kts 205°
2026-05-06 09:41 51.84968 -8.49599 508 ft 12 kts 182°
2026-05-06 09:41 51.84868 -8.49549 506 ft 21 kts 159°
2026-05-06 09:42 51.84506 -8.49335 505 ft 92 kts 160°
2026-05-06 09:42 51.83691 -8.48852 503 ft 155 kts 160°
2026-05-06 09:42 51.82564 -8.48176 782 ft 184 kts 160°
2026-05-06 09:42 51.81310 -8.47567 1527 ft 188 kts 165°
2026-05-06 09:43 51.80053 -8.46989 2359 ft 190 kts 160°
2026-05-06 09:43 51.78871 -8.45947 2970 ft 201 kts 137°
2026-05-06 09:43 51.78125 -8.43977 3488 ft 212 kts 103°
2026-05-06 09:43 51.78070 -8.41644 4364 ft 204 kts 89°
2026-05-06 09:44 51.78002 -8.39319 4973 ft 217 kts 93°
2026-05-06 09:44 51.77887 -8.36745 5290 ft 243 kts 93°
2026-05-06 09:44 51.77750 -8.33917 5890 ft 252 kts 93°
2026-05-06 09:44 51.77617 -8.31040 6657 ft 265 kts 93°
2026-05-06 09:45 51.77473 -8.27977 7216 ft 279 kts 93°
2026-05-06 09:45 51.77326 -8.24847 8101 ft 280 kts 93°